contact:dominique.lefevre@mio.osupytheas.fr, maurice.libes@osupytheas.fr, didier.mallarino@osupytheas.fr
Project:EMSO http://www.emso-fr.org/EMSO-France
Depth: 2436.0 m
Title:EMSO Ligure Ouest : Data MII capteur AQUADOPP
Date,Latitude,Longitude,X_East,Y_North,Z_Up,Amplitude_X,Amplitude_Y,Amplitude_Z,Batterie,SoundSpeed,Heading,Pitch,Roll,Pressure,TIS,Speed,Direction
, degrees North, degrees East, m.s-1, m.s-1,m.s-1, 1, 1, 1, Volt, m.s-1, degree, degree, degree, dbar, degree_C, m.s-1, degree
2022-06-01T00:04:03,42.805,6.029,-0.04,0.0,-0.017,103.0,104.0,102.0,13.4,1505.2,325.5,-0.7,1.8,2470.995,13.28,0.04,270.0
2022-06-01T00:07:03,42.805,6.029,-0.031,0.002,0.017,103.0,103.0,101.0,13.3,1505.2,325.3,-0.8,1.8,2470.964,13.28,0.031,273.7
2022-06-01T00:10:03,42.805,6.029,-0.018,-0.013,-0.029,104.0,103.0,102.0,13.4,1505.2,328.0,-0.8,1.8,2470.969,13.28,0.022,234.2
2022-06-01T00:13:03,42.805,6.029,-0.033,-0.012,-0.027,104.0,103.0,102.0,13.3,1505.2,327.0,-0.7,1.8,2470.92,13.28,0.035,250.0
2022-06-01T00:16:03,42.805,6.029,-0.031,-0.033,-0.002,103.0,103.0,102.0,13.4,1505.2,323.1,-0.8,1.8,2470.932,13.28,0.045,223.2
2022-06-01T00:19:03,42.805,6.029,-0.042,-0.002,-0.006,103.0,103.0,101.0,13.4,1505.2,331.0,-0.7,1.8,2470.943,13.28,0.042,267.3
2022-06-01T00:22:03,42.805,6.029,-0.009,-0.011,0.002,104.0,104.0,102.0,13.4,1505.2,323.0,-0.8,1.8,2470.905,13.28,0.014,219.3
2022-06-01T00:25:03,42.805,6.029,-0.033,-0.027,-0.017,103.0,104.0,103.0,13.4,1505.2,330.9,-0.8,1.8,2470.922,13.28,0.042,230.7
2022-06-01T00:28:03,42.805,6.029,-0.025,-0.023,0.01,104.0,104.0,101.0,13.3,1505.2,329.4,-0.8,1.9,2470.902,13.28,0.033,227.4
2022-06-01T00:31:03,42.805,6.029,-0.025,-0.015,-0.021,104.0,105.0,100.0,13.4,1505.2,322.5,-0.7,1.8,2470.916,13.28,0.029,239.0
2022-06-01T00:34:03,42.805,6.029,-0.031,-0.011,-0.002,105.0,103.0,103.0,13.3,1505.2,323.7,-0.8,1.8,2470.91,13.29,0.032,250.5
2022-06-01T00:37:03,42.805,6.029,-0.029,-0.001,-0.032,104.0,104.0,102.0,13.4,1505.2,331.6,-0.8,1.8,2470.913,13.29,0.029,268.0
2022-06-01T00:40:03,42.805,6.029,-0.02,-0.008,-0.008,105.0,105.0,100.0,13.4,1505.2,319.9,-0.8,1.8,2470.897,13.28,0.021,248.2
2022-06-01T00:43:03,42.805,6.029,-0.028,-0.01,-0.004,104.0,105.0,101.0,13.3,1505.2,328.0,-0.7,1.8,2470.897,13.28,0.029,250.4
2022-06-01T00:46:03,42.805,6.029,-0.009,-0.025,-0.025,103.0,103.0,102.0,13.4,1505.2,326.6,-0.7,1.9,2470.865,13.28,0.026,199.8
2022-06-01T00:49:03,42.805,6.029,-0.049,-0.001,-0.011,103.0,102.0,102.0,13.4,1505.2,325.5,-0.7,1.8,2470.907,13.29,0.049,268.8
2022-06-01T00:52:03,42.805,6.029,-0.023,-0.015,-0.004,103.0,102.0,101.0,13.4,1505.2,327.6,-0.8,1.8,2470.91,13.29,0.027,236.9
2022-06-01T00:55:03,42.805,6.029,-0.034,-0.003,-0.021,103.0,103.0,102.0,13.4,1505.2,325.8,-0.8,1.8,2470.909,13.28,0.034,265.0
2022-06-01T00:58:03,42.805,6.029,-0.03,-0.023,0.005,104.0,103.0,101.0,13.3,1505.2,322.9,-0.8,1.8,2470.897,13.28,0.037,232.5
2022-06-01T01:04:03,42.805,6.029,-0.028,-0.015,-0.017,104.0,102.0,102.0,13.3,1505.2,325.2,-0.7,1.8,2470.932,13.28,0.031,241.8
2022-06-01T01:07:03,42.805,6.029,-0.009,-0.021,-0.017,105.0,102.0,101.0,13.4,1505.2,322.5,-0.7,1.8,2470.921,13.28,0.022,203.2
2022-06-01T01:10:03,42.805,6.029,-0.04,0.003,-0.023,103.0,103.0,102.0,13.4,1505.2,327.8,-0.7,1.8,2470.9,13.28,0.04,274.3
2022-06-01T01:13:03,42.805,6.029,-0.027,-0.021,-0.007,103.0,104.0,102.0,13.4,1505.2,325.2,-0.8,1.9,2470.916,13.28,0.034,232.1
2022-06-01T01:16:03,42.805,6.029,-0.019,-0.015,0.009,103.0,102.0,101.0,13.4,1505.2,321.6,-0.8,1.8,2470.884,13.28,0.024,231.7
2022-06-01T01:19:03,42.805,6.029,-0.032,0.0,0.006,103.0,102.0,103.0,13.4,1505.2,323.9,-0.7,1.8,2470.906,13.28,0.032,270.0
2022-06-01T01:22:03,42.805,6.029,-0.022,-0.007,-0.013,104.0,104.0,102.0,13.4,1505.2,327.9,-0.8,1.8,2470.882,13.28,0.023,252.4
2022-06-01T01:25:03,42.805,6.029,-0.023,-0.023,-0.04,103.0,103.0,102.0,13.4,1505.2,327.5,-0.7,1.8,2470.908,13.28,0.032,225.0
2022-06-01T01:28:03,42.805,6.029,-0.036,-0.008,0.001,103.0,103.0,101.0,13.4,1505.2,327.9,-0.7,1.8,2470.881,13.28,0.036,257.5
2022-06-01T01:31:03,42.805,6.029,-0.019,-0.008,-0.02,105.0,104.0,101.0,13.4,1505.2,324.0,-0.7,1.8,2470.861,13.28,0.02,247.2
2022-06-01T01:34:03,42.805,6.029,-0.041,-0.011,-0.02,105.0,103.0,102.0,13.3,1505.2,326.8,-0.8,1.8,2470.873,13.29,0.042,255.0
2022-06-01T01:37:03,42.805,6.029,-0.037,0.0,0.01,104.0,104.0,101.0,13.4,1505.2,328.5,-0.8,1.8,2470.872,13.29,0.037,270.0
2022-06-01T01:40:03,42.805,6.029,-0.029,0.0,-0.022,104.0,103.0,102.0,13.3,1505.2,320.4,-0.8,1.8,2470.825,13.29,0.028,270.0
2022-06-01T01:43:03,42.805,6.029,-0.028,-0.016,0.0,103.0,104.0,101.0,13.4,1505.2,327.1,-0.8,1.8,2470.899,13.28,0.032,240.3
2022-06-01T01:46:03,42.805,6.029,-0.019,-0.008,-0.001,104.0,104.0,101.0,13.4,1505.2,331.9,-0.8,1.8,2470.87,13.28,0.02,247.2
2022-06-01T01:49:03,42.805,6.029,-0.027,-0.007,-0.014,104.0,104.0,101.0,13.3,1505.2,322.5,-0.8,1.9,2470.861,13.29,0.027,255.5
2022-06-01T01:52:03,42.805,6.029,-0.009,-0.027,-0.059,103.0,103.0,102.0,13.4,1505.2,331.5,-0.7,1.8,2470.816,13.29,0.028,198.4
2022-06-01T01:55:03,42.805,6.029,-0.026,-0.029,-0.022,103.0,103.0,101.0,13.3,1505.2,329.1,-0.8,1.8,2470.881,13.28,0.038,221.9
2022-06-01T01:58:03,42.805,6.029,-0.028,-0.02,-0.018,104.0,103.0,103.0,13.4,1505.2,326.8,-0.7,1.8,2470.899,13.29,0.034,234.5
2022-06-01T02:04:03,42.805,6.029,-0.037,-0.014,-0.035,104.0,104.0,102.0,13.4,1505.2,323.8,-0.8,1.8,2470.896,13.28,0.039,249.3
2022-06-01T02:07:03,42.805,6.029,-0.042,-0.016,-0.009,103.0,104.0,102.0,13.4,1505.2,322.2,-0.7,1.8,2470.887,13.28,0.044,249.1
2022-06-01T02:10:03,42.805,6.029,-0.022,-0.024,-0.025,104.0,103.0,102.0,13.3,1505.2,326.9,-0.7,1.8,2470.882,13.28,0.032,222.5
2022-06-01T02:13:03,42.805,6.029,-0.012,-0.015,-0.021,104.0,103.0,101.0,13.4,1505.2,331.3,-0.8,1.8,2470.883,13.28,0.019,218.7
2022-06-01T02:16:03,42.805,6.029,-0.016,-0.023,-0.019,104.0,103.0,102.0,13.4,1505.2,324.8,-0.8,1.8,2470.892,13.28,0.028,214.8
2022-06-01T02:19:03,42.805,6.029,-0.023,-0.015,-0.014,104.0,105.0,102.0,13.3,1505.2,321.0,-0.8,1.8,2470.885,13.29,0.027,236.9
2022-06-01T02:22:03,42.805,6.029,-0.021,0.001,-0.023,103.0,104.0,103.0,13.4,1505.2,329.1,-0.7,1.8,2470.858,13.29,0.021,272.7
2022-06-01T02:25:03,42.805,6.029,-0.025,0.004,-0.019,103.0,103.0,102.0,13.4,1505.2,326.4,-0.8,1.8,2470.846,13.29,0.025,279.1
2022-06-01T02:28:03,42.805,6.029,-0.021,-0.003,-0.031,102.0,103.0,102.0,13.4,1505.2,323.0,-0.7,1.8,2470.838,13.29,0.021,261.9
2022-06-01T02:31:03,42.805,6.029,-0.028,-0.023,-0.023,105.0,103.0,101.0,13.4,1505.2,324.8,-0.8,1.8,2470.822,13.29,0.036,230.6
2022-06-01T02:34:03,42.805,6.029,-0.042,-0.034,-0.045,103.0,104.0,101.0,13.3,1505.2,320.4,-0.8,1.8,2470.871,13.29,0.054,231.0
2022-06-01T02:37:03,42.805,6.029,-0.028,-0.007,0.015,104.0,103.0,101.0,13.3,1505.2,331.2,-0.8,1.8,2470.842,13.29,0.028,256.0
2022-06-01T02:40:03,42.805,6.029,-0.046,-0.014,-0.035,104.0,105.0,101.0,13.4,1505.2,328.5,-0.7,1.8,2470.856,13.29,0.048,253.1
2022-06-01T02:43:03,42.805,6.029,-0.014,-0.029,-0.033,104.0,103.0,102.0,13.4,1505.2,321.2,-0.8,1.8,2470.838,13.29,0.032,205.8
2022-06-01T02:46:03,42.805,6.029,-0.026,-0.02,-0.024,104.0,103.0,102.0,13.4,1505.2,324.9,-0.8,1.8,2470.863,13.29,0.032,232.4
2022-06-01T02:49:03,42.805,6.029,-0.026,0.005,0.002,104.0,103.0,102.0,13.4,1505.2,332.3,-0.8,1.8,2470.849,13.29,0.026,280.9
2022-06-01T02:52:03,42.805,6.029,-0.025,-0.035,-0.014,105.0,103.0,102.0,13.4,1505.2,325.1,-0.7,1.8,2470.868,13.29,0.043,215.5
2022-06-01T02:55:03,42.805,6.029,-0.04,0.001,-0.007,103.0,103.0,101.0,13.4,1505.2,325.1,-0.8,1.8,2470.805,13.29,0.04,271.4
2022-06-01T02:58:03,42.805,6.029,-0.045,-0.021,-0.035,103.0,102.0,102.0,13.4,1505.2,329.7,-0.8,1.8,2470.859,13.28,0.049,245.0
2022-06-01T03:04:03,42.805,6.029,-0.029,-0.003,-0.047,103.0,103.0,102.0,13.4,1505.2,325.6,-0.7,1.8,2470.911,13.28,0.029,264.1
2022-06-01T03:07:03,42.805,6.029,-0.025,-0.013,-0.018,105.0,103.0,102.0,13.4,1505.2,324.8,-0.8,1.9,2470.893,13.28,0.028,242.5
2022-06-01T03:10:03,42.805,6.029,-0.017,-0.002,-0.025,104.0,103.0,102.0,13.3,1505.2,331.4,-0.7,1.9,2470.914,13.28,0.017,263.3
2022-06-01T03:13:03,42.805,6.029,-0.042,-0.017,-0.014,104.0,104.0,101.0,13.4,1505.2,323.9,-0.7,1.8,2470.869,13.28,0.045,248.0
2022-06-01T03:16:03,42.805,6.029,-0.015,-0.04,-0.026,104.0,103.0,102.0,13.4,1505.2,324.4,-0.8,1.8,2470.864,13.28,0.042,200.6
2022-06-01T03:19:03,42.805,6.029,-0.029,-0.017,0.015,104.0,104.0,103.0,13.4,1505.2,326.6,-0.8,1.8,2470.865,13.28,0.033,239.6
2022-06-01T03:22:03,42.805,6.029,-0.015,-0.033,-0.008,104.0,103.0,102.0,13.3,1505.2,323.6,-0.7,1.8,2470.845,13.28,0.036,204.4
2022-06-01T03:25:03,42.805,6.029,-0.022,-0.018,0.015,104.0,104.0,101.0,13.4,1505.2,330.1,-0.8,1.8,2470.844,13.28,0.028,230.7
2022-06-01T03:28:03,42.805,6.029,-0.029,-0.015,0.01,102.0,104.0,103.0,13.3,1505.2,322.2,-0.7,1.8,2470.832,13.29,0.032,242.6
2022-06-01T03:31:03,42.805,6.029,-0.022,-0.026,-0.015,105.0,105.0,102.0,13.4,1505.2,324.1,-0.7,1.8,2470.872,13.29,0.034,220.2
2022-06-01T03:34:03,42.805,6.029,-0.008,-0.026,-0.02,104.0,104.0,103.0,13.4,1505.2,319.9,-0.7,1.8,2470.854,13.28,0.027,197.1
2022-06-01T03:37:03,42.805,6.029,-0.012,-0.022,-0.009,105.0,105.0,102.0,13.4,1505.2,326.0,-0.8,1.9,2470.859,13.29,0.025,208.6
2022-06-01T03:40:03,42.805,6.029,-0.025,0.005,-0.025,104.0,105.0,101.0,13.4,1505.2,331.1,-0.7,1.9,2470.851,13.29,0.025,281.3
2022-06-01T03:43:03,42.805,6.029,-0.047,-0.016,0.004,103.0,104.0,101.0,13.4,1505.2,322.5,-0.7,1.8,2470.887,13.29,0.049,251.2
2022-06-01T03:46:03,42.805,6.029,-0.04,-0.024,-0.024,107.0,105.0,101.0,13.4,1505.2,327.8,-0.8,1.8,2470.857,13.29,0.046,239.0
2022-06-01T03:49:03,42.805,6.029,-0.022,-0.007,-0.025,103.0,104.0,103.0,13.3,1505.2,331.7,-0.7,1.8,2470.886,13.29,0.023,252.4
2022-06-01T03:52:03,42.805,6.029,-0.019,-0.009,-0.017,105.0,104.0,102.0,13.4,1505.2,321.4,-0.8,1.8,2470.84,13.29,0.021,244.7
2022-06-01T03:55:03,42.805,6.029,-0.009,-0.034,-0.004,104.0,104.0,102.0,13.4,1505.2,332.1,-0.8,1.8,2470.876,13.29,0.035,194.8
2022-06-01T03:58:03,42.805,6.029,-0.012,-0.026,-0.016,105.0,105.0,103.0,13.4,1505.2,320.2,-0.7,1.8,2470.824,13.29,0.028,204.8
2022-06-01T04:01:03,42.805,6.029,-0.036,-0.025,0.0,104.0,105.0,102.0,13.4,1505.2,330.8,-0.8,1.9,2470.865,13.29,0.043,235.2
2022-06-01T04:04:03,42.805,6.029,-0.018,-0.01,-0.014,104.0,103.0,101.0,13.4,1505.2,326.3,-0.7,1.8,2470.857,13.29,0.02,240.9
2022-06-01T04:07:03,42.805,6.029,-0.028,-0.016,-0.009,104.0,103.0,103.0,13.4,1505.2,326.0,-0.7,1.8,2470.841,13.29,0.032,240.3
2022-06-01T04:10:03,42.805,6.029,-0.025,-0.022,-0.031,103.0,104.0,102.0,13.3,1505.2,331.5,-0.8,1.8,2470.848,13.29,0.033,228.7
2022-06-01T04:13:03,42.805,6.029,-0.029,-0.026,-0.023,103.0,103.0,102.0,13.4,1505.2,327.4,-0.7,1.8,2470.839,13.28,0.038,228.1
2022-06-01T04:16:03,42.805,6.029,-0.017,-0.002,-0.03,104.0,103.0,101.0,13.4,1505.2,329.9,-0.8,1.8,2470.845,13.29,0.017,263.3
2022-06-01T04:19:03,42.805,6.029,-0.042,-0.014,0.006,103.0,104.0,101.0,13.3,1505.2,320.7,-0.8,1.8,2470.848,13.29,0.044,251.6
2022-06-01T04:22:03,42.805,6.029,-0.02,-0.024,-0.007,104.0,103.0,101.0,13.4,1505.2,328.7,-0.7,1.8,2470.833,13.29,0.031,219.8
2022-06-01T04:25:03,42.805,6.029,-0.013,-0.014,0.0,105.0,104.0,102.0,13.4,1505.2,326.8,-0.8,1.8,2470.806,13.29,0.019,222.9
2022-06-01T04:28:03,42.805,6.029,-0.018,-0.002,-0.024,105.0,105.0,101.0,13.4,1505.2,331.8,-0.8,1.8,2470.855,13.29,0.018,263.7
2022-06-01T04:31:03,42.805,6.029,-0.016,-0.016,0.013,104.0,104.0,102.0,13.4,1505.2,321.3,-0.8,1.8,2470.834,13.29,0.022,225.0
2022-06-01T04:34:03,42.805,6.029,-0.015,-0.017,-0.052,105.0,104.0,102.0,13.3,1505.2,326.3,-0.8,1.8,2470.831,13.29,0.022,221.4
2022-06-01T04:37:03,42.805,6.029,-0.072,-0.025,-0.04,105.0,104.0,102.0,13.4,1505.2,326.7,-0.7,1.9,2470.86,13.29,0.076,250.9
2022-06-01T04:40:03,42.805,6.029,-0.026,-0.021,-0.017,105.0,104.0,102.0,13.4,1505.2,323.2,-0.7,1.8,2470.842,13.29,0.033,231.1
2022-06-01T04:43:03,42.805,6.029,-0.031,0.003,-0.057,104.0,104.0,103.0,13.3,1505.2,329.5,-0.7,1.9,2470.85,13.29,0.031,275.5
2022-06-01T04:46:03,42.805,6.029,0.002,-0.017,-0.011,106.0,105.0,103.0,13.4,1505.2,323.1,-0.7,1.9,2470.87,13.29,0.017,173.3
2022-06-01T04:49:03,42.805,6.029,-0.013,-0.013,0.001,105.0,104.0,102.0,13.4,1505.2,323.2,-0.7,1.8,2470.868,13.29,0.018,225.0
2022-06-01T04:52:03,42.805,6.029,0.005,-0.008,0.011,104.0,104.0,102.0,13.4,1505.2,323.2,-0.8,1.8,2470.866,13.29,0.009,148.0
2022-06-01T04:55:03,42.805,6.029,-0.01,-0.002,0.006,104.0,104.0,101.0,13.3,1505.2,324.9,-0.7,1.8,2470.866,13.29,0.01,258.7
2022-06-01T04:58:03,42.805,6.029,-0.009,-0.016,-0.033,105.0,104.0,103.0,13.4,1505.2,327.4,-0.7,1.8,2470.87,13.29,0.018,209.4
2022-06-01T05:04:03,42.805,6.029,-0.02,-0.002,-0.019,105.0,104.0,102.0,13.3,1505.2,322.7,-0.7,1.8,2470.927,13.28,0.02,264.3
2022-06-01T05:07:03,42.805,6.029,-0.038,-0.013,0.006,105.0,105.0,103.0,13.3,1505.2,326.8,-0.8,1.8,2470.957,13.28,0.04,251.1
2022-06-01T05:10:03,42.805,6.029,-0.019,-0.017,-0.009,105.0,105.0,103.0,13.4,1505.2,321.1,-0.8,1.8,2470.925,13.28,0.025,228.2
2022-06-01T05:13:03,42.805,6.029,-0.015,-0.019,-0.016,105.0,105.0,101.0,13.4,1505.2,324.6,-0.8,1.8,2470.91,13.28,0.024,218.3
2022-06-01T05:16:03,42.805,6.029,-0.016,-0.013,-0.046,104.0,105.0,103.0,13.4,1505.2,322.2,-0.8,1.9,2470.928,13.28,0.02,230.9
2022-06-01T05:19:03,42.805,6.029,-0.019,0.007,0.003,106.0,104.0,102.0,13.4,1505.2,329.2,-0.8,1.8,2470.876,13.28,0.02,290.2
2022-06-01T05:22:03,42.805,6.029,-0.021,0.0,-0.045,106.0,104.0,103.0,13.4,1505.2,328.9,-0.7,1.8,2470.883,13.28,0.021,270.0
2022-06-01T05:25:03,42.805,6.029,-0.03,0.017,-0.027,106.0,104.0,102.0,13.3,1505.2,330.5,-0.8,1.8,2470.906,13.29,0.034,299.5
2022-06-01T05:28:03,42.805,6.029,-0.017,0.001,-0.026,105.0,104.0,102.0,13.4,1505.2,322.8,-0.8,1.8,2470.894,13.28,0.017,273.4
2022-06-01T05:31:03,42.805,6.029,-0.03,-0.009,-0.003,107.0,106.0,101.0,13.4,1505.2,321.6,-0.7,1.8,2470.873,13.29,0.031,253.3
2022-06-01T05:34:03,42.805,6.029,-0.014,-0.015,0.007,106.0,104.0,102.0,13.3,1505.2,321.9,-0.8,1.8,2470.899,13.29,0.02,223.0
2022-06-01T05:37:03,42.805,6.029,-0.017,-0.017,-0.001,107.0,102.0,105.0,13.4,1505.2,325.8,-0.8,1.8,2470.88,13.29,0.024,225.0
2022-06-01T05:40:03,42.805,6.029,-0.029,-0.014,-0.029,104.0,106.0,102.0,13.4,1505.2,332.1,-0.7,1.8,2470.909,13.29,0.032,244.2
2022-06-01T05:43:03,42.805,6.029,-0.019,-0.013,-0.036,105.0,104.0,105.0,13.4,1505.2,323.4,-0.8,1.8,2470.925,13.29,0.023,235.6
2022-06-01T05:46:03,42.805,6.029,-0.037,-0.03,-0.036,104.0,104.0,102.0,13.4,1505.2,329.2,-0.8,1.8,2470.888,13.29,0.047,231.0
2022-06-01T05:49:03,42.805,6.029,-0.03,-0.009,-0.032,104.0,104.0,103.0,13.4,1505.2,323.2,-0.8,1.8,2470.908,13.29,0.031,253.3
2022-06-01T05:52:03,42.805,6.029,-0.029,0.015,0.011,104.0,105.0,103.0,13.4,1505.2,322.5,-0.7,1.8,2470.919,13.29,0.032,297.4
2022-06-01T05:55:03,42.805,6.029,-0.03,-0.005,-0.006,104.0,103.0,104.0,13.4,1505.2,323.4,-0.7,1.8,2470.927,13.29,0.03,260.5
2022-06-01T05:58:03,42.805,6.029,0.0,0.001,-0.034,105.0,104.0,103.0,13.4,1505.2,327.0,-0.7,1.8,2470.895,13.29,0.001,0.0
2022-06-01T06:04:03,42.805,6.029,-0.021,-0.008,-0.013,104.0,104.0,101.0,13.3,1505.2,329.4,-0.8,1.8,2470.965,13.28,0.022,249.1
2022-06-01T06:07:03,42.805,6.029,-0.009,-0.004,-0.016,104.0,103.0,102.0,13.4,1505.2,328.2,-0.8,1.8,2470.933,13.28,0.009,246.0
2022-06-01T06:10:03,42.805,6.029,-0.002,-0.003,-0.017,104.0,105.0,102.0,13.4,1505.2,331.5,-0.8,1.8,2470.94,13.28,0.003,213.7
2022-06-01T06:13:03,42.805,6.029,-0.019,-0.004,-0.011,105.0,105.0,102.0,13.4,1505.2,321.6,-0.8,1.8,2470.937,13.28,0.019,258.1
2022-06-01T06:16:03,42.805,6.029,-0.038,-0.004,0.002,105.0,104.0,102.0,13.3,1505.2,332.5,-0.8,1.9,2470.918,13.29,0.038,264.0
2022-06-01T06:19:03,42.805,6.029,-0.012,-0.015,-0.004,105.0,103.0,102.0,13.3,1505.2,325.9,-0.8,1.8,2470.935,13.29,0.019,218.7
2022-06-01T06:22:03,42.805,6.029,-0.017,-0.002,-0.009,104.0,104.0,103.0,13.3,1505.2,319.9,-0.8,1.8,2470.95,13.29,0.017,263.3
2022-06-01T06:25:03,42.805,6.029,-0.043,-0.016,-0.018,105.0,103.0,101.0,13.3,1505.2,329.5,-0.8,1.8,2470.944,13.29,0.045,249.6
2022-06-01T06:28:09,42.805,6.029,-0.043,-0.002,-0.007,103.0,104.0,102.0,13.4,1505.2,326.4,-0.8,1.8,2470.959,13.29,0.043,267.3
2022-06-01T06:31:03,42.805,6.029,-0.007,-0.007,-0.055,103.0,107.0,102.0,13.4,1505.2,322.2,-0.8,1.8,2470.935,13.29,0.009,225.0
2022-06-01T06:34:03,42.805,6.029,-0.021,-0.03,-0.041,105.0,101.0,102.0,13.4,1505.2,323.8,-0.7,1.8,2470.889,13.29,0.036,215.0
2022-06-01T06:37:03,42.805,6.029,-0.014,-0.003,-0.014,104.0,102.0,102.0,13.3,1505.2,323.0,-0.8,1.8,2470.948,13.29,0.014,257.9
2022-06-01T06:40:03,42.805,6.029,-0.005,-0.005,-0.02,102.0,102.0,101.0,13.4,1505.2,327.1,-0.8,1.8,2470.909,13.29,0.007,225.0
2022-06-01T06:43:03,42.805,6.029,-0.014,-0.002,-0.004,104.0,102.0,100.0,13.4,1505.2,324.5,-0.8,1.8,2470.95,13.29,0.014,261.9
2022-06-01T06:46:03,42.805,6.029,-0.036,0.004,-0.033,103.0,106.0,100.0,13.3,1505.2,328.0,-0.7,1.8,2470.939,13.29,0.036,276.3
2022-06-01T06:49:03,42.805,6.029,-0.011,-0.001,-0.024,104.0,102.0,102.0,13.4,1505.2,327.5,-0.8,1.8,2470.958,13.29,0.011,264.8
2022-06-01T06:52:03,42.805,6.029,-0.011,-0.008,-0.012,103.0,105.0,101.0,13.4,1505.2,327.7,-0.8,1.8,2470.953,13.29,0.013,234.0
2022-06-01T06:55:03,42.805,6.029,-0.033,0.0,-0.009,103.0,103.0,101.0,13.3,1505.2,326.1,-0.7,1.8,2470.938,13.29,0.033,270.0
2022-06-01T06:58:03,42.805,6.029,-0.009,-0.02,-0.011,104.0,104.0,101.0,13.4,1505.2,320.5,-0.7,1.8,2470.957,13.29,0.021,204.2
2022-06-01T07:04:03,42.805,6.029,-0.029,-0.016,0.017,104.0,103.0,102.0,13.3,1505.2,328.2,-0.8,1.8,2471.004,13.28,0.033,241.1
2022-06-01T07:07:03,42.805,6.029,-0.018,-0.018,-0.02,103.0,104.0,102.0,13.3,1505.2,321.9,-0.8,1.8,2470.964,13.28,0.025,225.0
2022-06-01T07:10:03,42.805,6.029,-0.023,0.0,-0.016,103.0,103.0,103.0,13.4,1505.2,323.7,-0.8,1.8,2470.999,13.28,0.023,270.0
2022-06-01T07:13:03,42.805,6.029,-0.008,-0.024,-0.044,105.0,103.0,101.0,13.4,1505.2,329.7,-0.7,1.9,2470.985,13.28,0.025,198.4
2022-06-01T07:16:03,42.805,6.029,-0.01,0.008,-0.007,103.0,104.0,103.0,13.4,1505.2,331.2,-0.8,1.8,2470.965,13.29,0.012,308.7
2022-06-01T07:19:03,42.805,6.029,-0.025,-0.013,-0.022,102.0,102.0,102.0,13.3,1505.2,326.1,-0.8,1.8,2470.985,13.29,0.028,242.5
2022-06-01T07:22:03,42.805,6.029,-0.019,0.002,-0.02,104.0,103.0,101.0,13.3,1505.2,329.1,-0.7,1.8,2470.957,13.29,0.019,276.0
2022-06-01T07:25:03,42.805,6.029,-0.011,-0.029,-0.021,104.0,102.0,101.0,13.3,1505.2,321.7,-0.7,1.8,2470.955,13.29,0.031,200.8
2022-06-01T07:28:03,42.805,6.029,-0.025,-0.014,-0.033,103.0,104.0,102.0,13.3,1505.2,326.9,-0.8,1.8,2470.975,13.29,0.028,240.7
2022-06-01T07:31:03,42.805,6.029,-0.015,-0.006,-0.01,103.0,104.0,101.0,13.3,1505.2,328.7,-0.8,1.8,2470.972,13.29,0.016,248.2
2022-06-01T07:34:03,42.805,6.029,-0.013,-0.019,-0.019,103.0,102.0,102.0,13.4,1505.2,324.8,-0.8,1.8,2470.964,13.29,0.023,214.4
2022-06-01T07:37:03,42.805,6.029,-0.02,-0.007,-0.009,105.0,103.0,100.0,13.3,1505.2,325.8,-0.7,1.9,2470.965,13.29,0.021,250.7
2022-06-01T07:40:03,42.805,6.029,-0.033,-0.013,-0.002,105.0,103.0,101.0,13.4,1505.2,323.7,-0.8,1.8,2470.933,13.29,0.035,248.5
2022-06-01T07:43:03,42.805,6.029,-0.017,-0.008,-0.041,104.0,102.0,102.0,13.4,1505.2,324.6,-0.8,1.8,2470.951,13.29,0.018,244.8
2022-06-01T07:46:03,42.805,6.029,-0.021,-0.014,-0.009,103.0,103.0,102.0,13.4,1505.2,322.9,-0.7,1.9,2470.931,13.29,0.025,236.3
2022-06-01T07:49:03,42.805,6.029,-0.003,-0.031,-0.022,103.0,103.0,100.0,13.4,1505.2,327.7,-0.7,1.8,2470.945,13.29,0.031,185.5
2022-06-01T07:52:03,42.805,6.029,0.019,-0.018,0.001,104.0,102.0,101.0,13.3,1505.2,324.3,-0.8,1.8,2470.925,13.29,0.026,133.5
2022-06-01T07:55:03,42.805,6.029,-0.011,-0.022,-0.014,103.0,103.0,101.0,13.3,1505.2,320.1,-0.8,1.8,2470.938,13.29,0.024,206.6
2022-06-01T07:58:03,42.805,6.029,-0.017,-0.012,-0.009,102.0,103.0,101.0,13.4,1505.2,324.1,-0.8,1.8,2470.972,13.29,0.02,234.8
2022-06-01T08:04:03,42.805,6.029,-0.014,-0.027,-0.018,104.0,105.0,101.0,13.4,1505.2,320.9,-0.8,1.8,2471.014,13.28,0.03,207.4
2022-06-01T08:07:03,42.805,6.029,-0.012,-0.029,-0.032,103.0,103.0,101.0,13.3,1505.2,329.1,-0.8,1.8,2470.964,13.28,0.031,202.5
2022-06-01T08:10:03,42.805,6.029,-0.006,-0.017,-0.023,103.0,103.0,101.0,13.4,1505.2,329.7,-0.8,1.8,2470.977,13.28,0.018,199.4
2022-06-01T08:13:03,42.805,6.029,-0.039,-0.016,-0.02,103.0,103.0,101.0,13.4,1505.2,324.3,-0.8,1.8,2470.982,13.28,0.042,247.7
2022-06-01T08:16:03,42.805,6.029,-0.04,-0.017,-0.011,104.0,104.0,101.0,13.4,1505.2,325.6,-0.8,1.8,2470.959,13.28,0.043,247.0
2022-06-01T08:19:03,42.805,6.029,-0.019,-0.02,-0.021,103.0,103.0,101.0,13.3,1505.2,328.2,-0.8,1.8,2470.965,13.29,0.027,223.5
2022-06-01T08:22:03,42.805,6.029,-0.026,-0.02,-0.024,104.0,102.0,101.0,13.4,1505.2,321.4,-0.7,1.8,2470.973,13.29,0.032,232.4
2022-06-01T08:25:03,42.805,6.029,0.006,-0.021,-0.029,102.0,102.0,102.0,13.3,1505.2,322.7,-0.8,1.8,2470.978,13.29,0.021,164.1
2022-06-01T08:28:03,42.805,6.029,0.002,-0.021,0.024,103.0,103.0,101.0,13.3,1505.2,328.8,-0.7,1.8,2470.958,13.29,0.021,174.6
2022-06-01T08:31:03,42.805,6.029,-0.029,-0.015,-0.016,102.0,103.0,102.0,13.4,1505.2,321.3,-0.8,1.8,2470.954,13.29,0.032,242.6
2022-06-01T08:34:03,42.805,6.029,-0.02,-0.009,-0.021,104.0,103.0,101.0,13.4,1505.2,331.5,-0.7,1.8,2470.897,13.29,0.021,245.8
2022-06-01T08:37:03,42.805,6.029,-0.023,-0.007,-0.033,103.0,104.0,101.0,13.4,1505.2,330.0,-0.8,1.8,2470.931,13.29,0.024,253.1
2022-06-01T08:40:03,42.805,6.029,-0.031,-0.019,-0.063,103.0,103.0,101.0,13.4,1505.2,330.7,-0.8,1.8,2470.952,13.29,0.036,238.5
2022-06-01T08:43:03,42.805,6.029,-0.03,-0.004,-0.023,102.0,102.0,101.0,13.4,1505.2,329.8,-0.8,1.8,2470.938,13.29,0.03,262.4
2022-06-01T08:46:03,42.805,6.029,0.002,-0.005,-0.036,103.0,103.0,101.0,13.3,1505.2,331.2,-0.8,1.8,2470.895,13.29,0.005,158.2
2022-06-01T08:49:03,42.805,6.029,-0.001,-0.013,-0.048,103.0,102.0,101.0,13.4,1505.2,324.8,-0.7,1.8,2470.951,13.29,0.013,184.4
2022-06-01T08:52:03,42.805,6.029,-0.02,0.012,-0.012,103.0,104.0,101.0,13.4,1505.2,325.0,-0.8,1.8,2470.909,13.29,0.023,301.0
2022-06-01T08:55:03,42.805,6.029,-0.018,0.001,-0.029,102.0,104.0,102.0,13.4,1505.2,328.0,-0.8,1.8,2470.946,13.29,0.018,273.2
2022-06-01T08:58:03,42.805,6.029,-0.037,-0.015,-0.016,103.0,104.0,101.0,13.3,1505.2,325.3,-0.8,1.8,2470.935,13.29,0.039,247.9
2022-06-01T09:04:03,42.805,6.029,-0.048,-0.012,-0.038,104.0,103.0,101.0,13.3,1505.2,327.5,-0.8,1.8,2470.929,13.28,0.049,256.0
2022-06-01T09:07:03,42.805,6.029,-0.02,-0.02,0.0,103.0,103.0,101.0,13.4,1505.2,329.6,-0.8,1.8,2470.986,13.28,0.028,225.0
2022-06-01T09:10:03,42.805,6.029,-0.026,0.0,-0.037,102.0,103.0,102.0,13.3,1505.2,322.0,-0.7,1.8,2470.952,13.28,0.026,270.0
2022-06-01T09:13:03,42.805,6.029,-0.031,0.0,-0.013,104.0,103.0,101.0,13.3,1505.2,328.3,-0.8,1.8,2470.929,13.28,0.03,270.0
2022-06-01T09:16:03,42.805,6.029,-0.015,-0.018,-0.002,104.0,102.0,102.0,13.3,1505.2,330.1,-0.8,1.8,2470.968,13.28,0.023,219.8
2022-06-01T09:19:03,42.805,6.029,-0.025,-0.002,-0.014,103.0,103.0,102.0,13.3,1505.2,323.9,-0.7,1.8,2470.922,13.28,0.025,265.4
2022-06-01T09:22:03,42.805,6.029,-0.001,-0.022,-0.054,104.0,102.0,100.0,13.4,1505.2,332.5,-0.7,1.8,2470.914,13.29,0.022,182.6
2022-06-01T09:25:03,42.805,6.029,-0.013,-0.017,0.001,103.0,101.0,102.0,13.4,1505.2,322.2,-0.7,1.8,2470.915,13.29,0.021,217.4
2022-06-01T09:28:03,42.805,6.029,0.007,-0.01,-0.005,104.0,102.0,101.0,13.4,1505.2,324.4,-0.8,1.8,2470.906,13.29,0.012,145.0
2022-06-01T09:31:03,42.805,6.029,-0.02,0.0,-0.015,103.0,104.0,101.0,13.4,1505.2,333.2,-0.8,1.8,2470.93,13.29,0.02,270.0
2022-06-01T09:34:03,42.805,6.029,-0.004,-0.029,0.0,104.0,101.0,102.0,13.3,1505.2,323.4,-0.8,1.8,2470.906,13.29,0.029,187.8
2022-06-01T09:37:03,42.805,6.029,-0.036,0.0,-0.026,103.0,102.0,101.0,13.4,1505.2,328.7,-0.8,1.8,2470.931,13.29,0.036,270.0
2022-06-01T09:40:03,42.805,6.029,-0.026,0.0,-0.016,104.0,103.0,101.0,13.3,1505.2,328.8,-0.7,1.8,2470.918,13.29,0.026,270.0
2022-06-01T09:43:03,42.805,6.029,-0.025,-0.019,-0.022,103.0,102.0,101.0,13.4,1505.2,331.0,-0.8,1.8,2470.933,13.29,0.031,232.8
2022-06-01T09:46:03,42.805,6.029,-0.033,-0.028,-0.036,104.0,103.0,101.0,13.4,1505.2,327.6,-0.8,1.8,2470.908,13.29,0.043,229.7
2022-06-01T09:49:03,42.805,6.029,-0.017,-0.001,-0.028,105.0,102.0,103.0,13.4,1505.2,328.9,-0.8,1.8,2470.909,13.29,0.017,266.6